Wind_Speed
33 35 37 38 39 38 39 42 40 39 41 42 42 42 43 42 38 35 33 31 29 36 38 39 41 38 34 36 30 25 24 22 11 12 16 17 17 18 18 18 19 20 20
35 35 34 34 36 39 42 41 38 41 43 45 42 43 37 38 37 32 32 28 31 38 40 38 38 39 34 36 32 28 26 23 21 15 19 19 19 17 19 21 20 19 19
33 33 30 35 33 38 38 37 40 42 44 42 40 35 38 37 39 34 33 37 47 42 38 39 39 39 33 31 26 26 23 20 20 19 17 14 14 16 18 19 18 19 20
36 37 33 35 38 36 36 36 38 40 38 38 38 35 39 37 36 36 36 35 34 33 34 37 35 36 32 29 25 23 20 19 19 16 14 13 13 14 14 17 21 23 25
32 32 42 34 31 31 34 36 38 37 36 37 36 38 37 33 35 33 34 35 35 32 30 28 25 23 23 19 18 17 17 18 15 14 10 8 11 13 15 14 21 24 25
30 33 30 30 31 33 34 36 37 34 33 33 35 36 33 30 34 35 36 34 34 32 30 24 20 17 13 12 12 12 13 14 12 9 10 11 13 15 16 17 18 14 6
27 26 26 27 30 32 31 29 30 33 34 34 34 29 28 29 30 31 29 27 24 22 22 19 18 17 15 14 12 13 9 9 10 10 11 13 13 14 15 17 18 18 15
18 17 19 20 19 19 20 23 26 26 25 21 19 18 17 15 15 19 20 16 17 17 17 16 14 13 11 11 8 6 8 9 9 9 10 11 12 12 14 17 19 23 23
13 11 11 12 14 15 13 12 10 9 6 6 7 8 9 11 12 16 19 20 18 18 16 15 12 10 5 5 6 6 6 6 5 5 6 7 11 11 12 15 15 15 19
15 13 10 9 9 9 8 8 8 9 12 12 14 13 16 15 11 10 13 18 22 20 13 10 6 4 2 2 3 3 3 3 5 6 8 11 12 12 10 9 11 16 18
19 18 17 15 14 12 12 11 11 13 15 18 21 19 18 16 15 15 15 15 14 13 10 9 6 2 1 3 3 2 3 3 5 7 9 10 10 13 13 12 14 17 17
23 22 20 18 16 14 13 13 13 17 20 21 22 21 19 18 16 15 15 13 12 10 8 4 2 3 3 2 1 2 3 3 6 9 8 6 9 9 12 18 18 18 19
24 23 21 20 19 16 16 17 17 16 17 16 16 17 17 16 16 13 12 10 10 9 6 4 5 6 5 3 5 4 3 5 7 7 6 8 9 12 14 15 17 15 22
27 24 23 24 24 23 22 21 22 19 18 17 16 14 12 10 9 8 9 9 8 7 6 6 4 1 4 6 4 4 4 6 6 6 8 9 11 12 13 14 16 16 21
30 28 28 29 30 31 30 26 25 20 16 14 11 9 8 8 8 8 8 8 7 6 5 4 2 2 4 4 4 4 7 7 6 7 8 10 11 13 15 14 14 17 16
29 25 23 24 24 24 23 25 23 20 18 16 13 11 9 7 6 6 6 6 6 6 4 2 4 4 5 5 4 3 4 5 6 8 11 11 15 15 16 14 15 15 17
28 24 24 24 22 21 21 17 15 18 18 18 15 12 10 9 8 7 8 8 9 11 8 7 3 2 3 4 3 5 6 8 11 13 13 15 17 16 13 15 15 15 17
31 29 27 24 23 23 22 20 18 16 14 16 18 20 17 15 14 14 13 12 12 11 10 9 7 6 6 6 7 9 11 12 13 14 15 16 16 12 15 15 15 15 17
27 25 25 26 25 23 22 21 20 19 18 17 15 16 17 15 15 16 14 15 12 11 11 10 10 7 9 10 12 13 12 13 15 17 18 17 14 14 19 16 15 19 18
29 27 26 25 24 24 24 23 21 19 18 18 19 19 17 17 18 16 15 14 13 12 12 11 10 12 14 15 14 13 15 17 19 20 19 15 14 18 20 18 20 17 18
26 27 26 26 25 25 24 23 21 20 18 16 15 14 14 15 14 14 14 14 14 14 15 15 16 16 16 15 17 19 20 20 20 19 19 20 22 21 18 17 20 17 18
26 25 25 25 23 22 21 19 18 16 15 14 13 13 13 12 11 12 13 13 15 15 15 15 17 18 19 20 22 23 23 23 23 22 21 19 18 17 17 22 23 22 19
24 24 24 22 21 20 20 18 17 16 14 13 12 13 12 12 12 13 15 15 15 16 18 20 22 23 24 24 23 22 22 22 21 18 17 17 19 20 22 22 21 20 17
23 22 22 21 20 19 17 17 16 15 14 13 13 12 13 13 15 16 17 18 20 21 21 22 23 23 24 25 23 20 18 17 16 17 18 21 22 22 19 19 21 20 20
21 22 21 19 17 17 16 15 14 12 12 12 13 14 15 16 18 19 20 21 22 22 22 22 24 25 24 22 20 18 16 15 17 19 21 22 24 24 24 23 22 20 19
21 20 18 17 16 14 13 12 12 13 14 15 16 16 16 18 18 19 20 21 24 26 27 27 26 24 21 20 19 18 18 18 18 18 19 21 22 21 20 20 20 19 19
Wind_Direction
210 215 222 227 231 235 237 239 243 248 250 255 260 262 262 260 258 253 250 244 254 248 240 236 231 229 229 225 226 222 220 219 206 231 242 247 253 260 268 269 269 272 273
211 215 219 222 226 228 233 238 242 248 252 257 258 260 257 263 259 254 252 234 237 236 233 226 224 224 227 225 223 215 226 229 231 224 248 251 258 260 264 269 271 274 272
209 214 215 221 220 230 235 239 244 247 250 252 253 248 254 251 244 248 249 255 236 231 225 224 225 222 217 221 223 221 221 228 237 236 241 245 254 263 269 272 276 277 279
213 218 221 222 224 229 233 235 238 240 242 246 252 263 260 247 255 248 248 235 230 225 229 233 225 219 216 218 221 222 226 229 229 223 235 248 254 261 267 282 290 292 296
214 218 226 228 229 232 234 238 244 246 244 245 245 248 240 247 247 245 241 231 231 227 225 219 214 223 219 218 216 227 222 216 219 224 229 236 250 267 277 290 293 300 298
210 220 228 231 233 235 237 238 239 239 240 239 235 242 241 246 251 253 247 232 224 215 206 200 195 193 199 218 214 211 220 220 223 228 243 250 266 282 292 295 294 296 302
207 214 219 224 229 232 234 233 233 237 239 236 239 244 252 257 255 246 225 212 198 187 178 168 165 167 172 178 193 203 210 242 251 260 263 269 279 287 292 287 285 282 274
189 192 205 211 219 221 221 223 227 229 232 237 244 244 239 239 238 214 199 188 165 155 156 167 172 155 161 172 184 219 246 258 260 264 273 282 285 290 286 288 291 287 287
134 153 166 186 192 198 204 213 220 218 200 179 174 173 179 149 181 182 174 156 144 137 140 145 149 144 168 248 258 242 249 265 272 281 280 289 289 296 292 297 286 281 285
121 124 132 132 135 132 132 131 135 142 132 131 120 123 127 117 125 145 152 140 129 123 119 117 106 103 89 250 282 267 262 259 300 303 305 307 305 302 296 288 301 282 280
101 98 91 88 91 97 104 108 120 122 123 115 111 108 105 105 104 111 118 120 119 112 95 81 84 81 317 299 285 249 229 274 299 322 326 322 317 318 318 302 290 289 290
100 97 93 92 94 96 100 102 113 123 118 108 110 102 98 93 89 86 88 91 88 87 86 74 23 343 334 342 170 222 237 300 327 328 330 319 320 323 312 311 308 295 281
99 95 94 95 94 96 103 111 114 120 114 103 98 93 93 91 88 83 80 83 83 81 74 28 12 347 321 224 204 231 287 328 335 333 332 325 321 317 316 312 312 299 292
95 88 90 90 87 85 87 84 80 80 87 94 98 102 105 94 81 69 61 48 40 28 13 350 347 326 199 202 219 268 313 321 331 329 326 319 322 325 320 316 314 314 312
88 86 84 84 83 82 79 76 79 72 79 86 80 85 87 77 73 57 39 33 26 16 4 354 320 235 237 254 268 287 311 321 330 325 321 319 320 321 319 319 317 320 308
86 81 80 81 80 81 82 75 67 68 66 66 62 58 58 60 62 61 50 31 25 3 351 318 280 252 262 281 278 283 321 323 324 320 315 315 317 317 315 313 316 313 306
85 82 79 76 73 71 70 70 73 66 62 59 49 44 51 80 72 48 16 14 6 2 0 336 328 335 335 330 343 332 321 317 316 316 314 313 316 315 314 314 314 312 310
86 83 78 74 72 71 69 66 65 59 55 53 52 76 67 56 43 31 20 12 27 32 38 29 14 0 343 333 324 321 315 312 316 317 313 309 309 304 318 313 314 312 312
77 75 78 77 74 72 69 67 64 61 57 53 44 37 28 33 39 40 39 43 31 19 5 353 346 343 335 327 321 318 310 312 317 314 309 304 305 303 313 311 313 314 311
80 81 78 74 70 67 65 63 60 59 58 53 49 40 31 21 30 27 21 15 9 6 0 353 344 338 334 328 323 321 315 315 315 313 311 303 302 311 306 307 317 310 310
79 76 76 73 68 68 66 65 63 61 60 55 45 31 21 20 19 17 15 12 7 359 350 341 335 330 327 325 319 317 315 313 310 309 307 303 306 306 304 303 311 305 306
83 80 77 75 74 72 70 65 63 61 56 51 41 29 20 21 23 17 10 2 352 345 340 336 331 328 325 322 318 313 309 306 305 309 306 305 307 309 303 308 309 309 308
84 83 80 78 75 72 68 63 59 55 49 39 26 20 23 22 10 0 351 345 342 337 333 328 323 320 318 315 312 310 308 307 308 310 310 309 306 303 305 304 304 303 301
83 83 82 78 73 71 68 63 57 50 43 35 30 26 16 4 354 347 340 333 328 326 324 323 324 325 323 321 317 313 309 306 304 301 298 298 299 300 296 294 295 294 295
86 83 80 78 74 66 60 54 48 42 36 27 16 4 353 343 339 335 332 329 327 325 325 325 323 323 322 320 318 315 309 301 296 294 294 293 293 295 296 297 298 299 299
84 83 80 72 64 57 54 50 42 30 18 5 355 346 340 338 337 333 333 333 331 328 326 326 328 329 326 323 321 318 314 311 306 303 298 293 293 294 296 297 300 297 296
Height
740 744 750 753 757 761 765 768 771 773 774 776 779 780 782 783 782 783 785 786 787 790 792 793 797 799 801 806 810 811 813 817 819 822 825 826 827 828 829 830 830 830 829
732 737 738 745 750 754 757 759 764 765 768 771 773 774 774 772 773 775 778 771 779 780 784 785 789 793 795 798 800 802 808 810 813 815 818 819 820 822 822 822 823 823 822
727 730 735 738 742 744 747 751 756 758 760 763 764 766 765 765 764 764 766 767 769 771 775 776 781 784 787 790 794 797 800 803 806 809 812 814 815 817 816 816 816 816 816
716 720 724 726 728 734 740 744 747 749 753 754 755 754 757 757 758 758 760 762 763 765 767 771 774 774 778 783 789 793 795 798 801 805 808 810 810 811 811 811 809 808 806
708 713 711 719 726 731 734 738 740 742 745 747 749 749 748 750 752 752 752 754 756 759 762 766 769 772 774 779 784 789 790 794 798 800 802 803 804 806 805 804 802 801 798
703 705 712 718 722 725 728 731 734 736 738 741 740 741 742 744 745 745 746 747 748 750 754 759 762 768 773 775 781 785 790 792 794 794 796 798 799 800 800 800 798 797 792
698 703 708 713 717 720 723 727 730 731 732 733 734 735 736 737 738 739 742 743 746 748 750 757 760 762 766 773 781 785 786 789 790 793 793 794 793 794 795 794 793 791 788
697 702 706 711 715 719 721 723 724 726 728 729 730 732 734 735 737 740 743 745 745 748 753 758 763 767 771 772 778 782 785 787 788 788 788 790 790 790 790 789 787 784 781
700 704 708 711 713 716 719 722 724 726 728 731 733 734 736 737 740 740 741 744 748 750 755 761 765 768 772 775 775 779 781 783 784 784 785 786 788 785 785 784 782 780 774
702 705 710 712 715 718 721 724 726 728 731 733 735 738 740 742 744 745 746 748 751 755 762 763 766 768 771 776 777 778 778 781 781 781 781 782 782 780 779 779 777 775 772
705 708 711 714 717 720 723 726 728 730 733 736 738 743 745 748 750 751 753 754 757 760 764 767 770 772 773 773 774 775 777 778 779 778 777 777 776 774 772 772 771 770 768
708 711 715 718 720 723 725 729 732 735 738 742 744 748 752 754 755 757 758 760 763 765 768 771 773 772 772 773 774 775 776 775 774 774 773 773 771 770 768 767 765 763 762
711 716 719 722 725 728 730 733 736 740 742 747 751 754 758 760 760 762 764 765 765 767 769 770 771 771 773 774 774 774 773 772 772 772 771 769 768 766 764 762 760 757 753
716 721 725 728 731 735 738 741 745 748 750 753 756 759 761 763 764 765 766 767 768 768 769 770 771 772 772 772 772 771 771 770 770 769 768 766 764 763 761 759 755 752 747
724 730 734 738 741 743 746 750 752 755 757 758 760 763 765 766 768 769 769 770 770 770 770 771 771 771 771 771 770 770 769 768 767 766 765 763 762 760 758 755 752 749 746
731 738 743 745 748 750 753 757 760 762 763 764 765 767 768 769 771 772 772 772 772 771 771 771 771 770 770 769 769 768 767 767 766 765 763 762 760 757 754 752 749 746 741
739 745 748 751 754 756 759 762 765 768 769 770 771 771 772 773 773 773 773 773 772 772 772 771 770 770 770 769 768 768 767 765 764 762 760 759 757 755 753 750 746 743 738
749 752 755 759 761 762 765 767 770 772 773 774 775 775 777 777 776 776 775 774 774 773 773 773 773 772 771 770 768 767 765 763 762 760 758 756 754 752 750 747 744 740 736
756 760 763 765 766 769 771 773 774 776 778 780 780 780 780 780 779 778 778 777 778 777 776 775 774 772 771 769 767 765 763 762 760 758 755 753 751 749 747 744 741 737 734
764 766 767 770 772 774 775 776 779 781 783 784 784 785 784 782 781 781 780 780 779 778 777 775 774 772 770 768 766 763 761 759 757 755 752 750 748 746 743 740 738 734 731
768 770 773 775 777 779 780 782 784 785 786 787 788 788 787 785 784 783 782 781 780 779 777 775 774 771 769 767 765 762 759 756 754 751 749 747 745 742 740 738 735 732 728
774 777 779 781 783 784 786 787 789 790 790 790 790 789 788 787 786 785 784 782 781 779 777 774 772 770 767 765 762 758 755 751 749 747 744 742 740 738 736 734 731 728 724
781 782 785 787 788 789 790 792 793 793 793 793 792 791 789 788 787 785 784 782 780 778 775 773 769 766 763 760 757 754 750 747 745 743 741 739 737 735 732 729 727 723 720
787 788 789 790 791 793 795 795 795 795 795 794 793 792 790 788 787 785 783 781 778 775 772 769 766 762 758 755 751 748 746 743 741 740 738 736 733 730 728 725 722 719 716
791 791 792 794 796 797 797 798 798 798 797 795 793 792 790 788 785 782 780 777 774 771 768 765 761 757 753 749 746 744 741 739 738 736 733 731 728 725 723 720 717 714 712
794 796 797 798 799 800 800 800 799 798 796 794 793 791 789 786 783 780 777 774 770 767 763 759 755 752 749 745 742 740 737 735 732 730 728 725 722 719 717 715 712 711 708